This is the latest recevied weather packets stored in our database for station/object G1OCN-WX. If no packets are shown the sender has not sent any weather packets the latest 1 day(s).
| Time | Temp. | Humidity | Pressure | Rain* | Wind** | Luminosity | Snow |
|---|---|---|---|---|---|---|---|
| 1778044363 | 8.89° C | 85% | 1012.6 hPa | 0.25 mm | 5.81 m/s, 64° | - | - |
| 1778044303 | 8.89° C | 85% | 1012.6 hPa | 0.25 mm | 5.81 m/s, 63° | - | - |
| 1778044243 | 8.89° C | 85% | 1012.6 hPa | 0.25 mm | 4.47 m/s, 63° | - | - |
| 1778044183 | 8.89° C | 85% | 1012.7 hPa | 0.25 mm | 5.36 m/s, 69° | - | - |
| 1778044123 | 8.89° C | 85% | 1012.7 hPa | 0.25 mm | 6.26 m/s, 68° | - | - |
| 1778044063 | 8.89° C | 85% | 1012.6 hPa | 0.25 mm | 5.81 m/s, 71° | - | - |
| 1778044003 | 8.89° C | 85% | 1012.7 hPa | 0.25 mm | 5.81 m/s, 64° | - | - |
| 1778043943 | 8.89° C | 85% | 1012.7 hPa | 0.25 mm | 6.26 m/s, 65° | - | - |
| 1778043883 | 8.89° C | 85% | 1012.7 hPa | 0.25 mm | 5.36 m/s, 71° | - | - |
| 1778043823 | 8.89° C | 85% | 1012.6 hPa | 0.25 mm | 5.36 m/s, 68° | - | - |
| 1778043763 | 8.89° C | 85% | 1012.6 hPa | 0.25 mm | 5.81 m/s, 68° | - | - |
| 1778043703 | 8.89° C | 85% | 1012.6 hPa | 0.25 mm | 5.81 m/s, 65° | - | - |
| 1778043643 | 8.89° C | 85% | 1012.6 hPa | 0.25 mm | 5.36 m/s, 62° | - | - |
| 1778043583 | 8.89° C | 85% | 1012.6 hPa | 0.25 mm | 4.47 m/s, 66° | - | - |
| 1778043522 | 8.89° C | 85% | 1012.6 hPa | 0.25 mm | 5.81 m/s, 64° | - | - |
| 1778043462 | 8.89° C | 85% | 1012.6 hPa | 0.25 mm | 5.81 m/s, 63° | - | - |
| 1778043402 | 8.89° C | 84% | 1012.6 hPa | 0.25 mm | 6.26 m/s, 59° | - | - |
| 1778043342 | 8.89° C | 85% | 1012.6 hPa | 0.25 mm | 5.36 m/s, 64° | - | - |
| 1778043282 | 8.89° C | 85% | 1012.6 hPa | 0.25 mm | 5.36 m/s, 62° | - | - |
| 1778043222 | 8.89° C | 84% | 1012.6 hPa | 0.25 mm | 6.71 m/s, 63° | - | - |
| 1778043162 | 8.89° C | 84% | 1012.6 hPa | 0.25 mm | 5.36 m/s, 65° | - | - |
| 1778043102 | 8.89° C | 84% | 1012.6 hPa | 0.25 mm | 5.36 m/s, 65° | - | - |
| 1778043042 | 8.89° C | 84% | 1012.6 hPa | 0.25 mm | 5.81 m/s, 67° | - | - |
| 1778042982 | 8.89° C | 84% | 1012.6 hPa | 0.25 mm | 5.36 m/s, 68° | - | - |
| 1778042922 | 8.89° C | 84% | 1012.6 hPa | 0.25 mm | 4.02 m/s, 63° | - | - |
* Rain latest hour (hover to see other rain measurements)
** Current wind speed in m/s (hover to see current wind gust speed)